Regional Weather Roundup
Issued by NWS Kansas City/Pleasant Hill, MO

Home | Current Version | Previous Version | Text Only | Print | Product List | Glossary On
Versions: 1 2 3 4 5 6 7 8 9 10 11 12 13 14 15 16 17 18 19 20 21 22 23 24 25 26 27 28 29 30 31 32 33 34 35 36 37 38 39 40 41 42 43 44 45 46 47 48 49 50
000
ASUS43 KEAX 241810
RWREAX

WEATHER ROUNDUP FOR EASTERN KANSAS AND NORTHWEST MISSOURI
NATIONAL WEATHER SERVICE KANSAS CITY/PLEASANT HILL MO
100 PM CDT THU APR 24 2014

KSZ040-057-103>105-MOZ028-029-037-043-241900-
...KANSAS CITY METROPOLITAN AREA...

CITY           SKY/WX    TMP DP  RH WIND       PRES   REMARKS
K.C. INTL      TSTM      58  57  97 W16G23    29.63S VSB 3/4
6HR MIN TEMP:  57; 6HR MAX TEMP:  62; 6HR PCP:  0.54;

K.C. DOWNTOWN  TSTM      61  58  90 W20G29    29.65R VSB 3/4
6HR MIN TEMP:  58; 6HR MAX TEMP:  66; 6HR PCP:  0.85;

LEES SUMMIT    TSTM      59  55  87 SW17G26   29.65R FOG
6HR MIN TEMP:  56; 6HR MAX TEMP:  63; 6HR PCP:  0.68;

OLATHE - IXD   LGT RAIN  58  55  90 NW21G30   29.63F
6HR MIN TEMP:  58; 6HR MAX TEMP:  61; 6HR PCP:  1.88;

OLATHE - OJC   LGT RAIN  57  55  93 NW21G33   29.59S FOG
6HR MIN TEMP:  56; 6HR MAX TEMP:  61; 6HR PCP:  1.54;

LAWRENCE       LGT RAIN  57  54  89 N25G38    29.60F

$$

MOZ001>008-011>017-020>025-030>033-038>040-044>046-053-054-241900-
...NORTHERN AND CENTRAL MISSOURI...

CITY           SKY/WX    TMP DP  RH WIND       PRES   REMARKS
ST. JOSEPH     HVY RAIN  55  52  89 NW25G35   29.68R VSB 3/4
6HR MIN TEMP:  55; 6HR MAX TEMP:  64; 6HR PCP:  0.71;

MOSBY          TSTM      59  59 100 W7        29.60S
WARRENSBURG    TSTM     N/A N/A N/A E7        29.62F
WHITEMAN AFB   TSTM      59  50  72 SE8       29.62F
6HR MIN TEMP:  55; 6HR MAX TEMP:  62; 6HR PCP:  1.44;

CLINTON        FAIR      66  57  72 S13       29.64F
SEDALIA        CLOUDY    63  54  72 SE10      29.65F
6HR MIN TEMP:  59; 6HR MAX TEMP:  64; 6HR PCP:  0.07;

WARSAW         NOT AVBL
MARSHALL         N/A     55  54  94 E9        29.67F VSB 1/2
CHILLICOTHE      N/A     58  53  84 SE12      29.62F
6HR MIN TEMP:  53; 6HR MAX TEMP:  60; 6HR PCP:  0.61;

MOBERLY        RAIN      54  48  82 E3        29.74F
KIRKSVILLE     LGT RAIN  52  50  93 SE17G24   29.70F
6HR MIN TEMP:  51; 6HR MAX TEMP:  58; 6HR PCP:  0.27;


$$

MOZ041-047>049-056>058-063>065-088>090-097-241900-
...EASTERN AND SOUTHERN MISSOURI...

CITY           SKY/WX    TMP DP  RH WIND       PRES   REMARKS
ST. LOUIS INTL PTSUNNY   73  42  32 SE16G22   29.78F
6HR MIN TEMP:  55; 6HR MAX TEMP:  74;

SPIRIT OF STL  PTSUNNY   74  43  32 S10G20    29.74F
COLUMBIA       PTSUNNY   69  49  48 SE6       29.69F
JEFFERSON CITY PTSUNNY   72  50  45 SW8       29.68F
MEXICO         PTSUNNY   68  46  45 S5        29.71F
HANNIBAL       RAIN      64  43  45 S6        29.75F
ROLLA          PTSUNNY   70  50  49 S15G24    29.70F
LEBANON        FAIR      73  52  46 S15       29.68F
OSAGE BEACH    FAIR      72  50  46 SE13      29.69F
SPRINGFIELD    FAIR      72  54  53 S18       29.67F
BRANSON        PTSUNNY   70  52  52 S9G17     29.70F
NEVADA         LGT RAIN  63  59  88 S13       29.64S
JOPLIN         LGT RAIN  67  58  72 S28G36    29.66S
WEST PLAINS    FAIR      70  50  49 SE14G24   29.72F
MALDEN         FAIR      81  45  28 S21       29.84F

$$

IAZ060-094-KSZ022-034>040-054-083-096-NEZ052-066-093-241900-
...KANSAS...SOUTHEAST NEBRASKA AND IOWA...

CITY           SKY/WX    TMP DP  RH WIND       PRES   REMARKS
TOPEKA         LGT RAIN  56  52  86 NW20G29   29.62F
6HR MIN TEMP:  56; 6HR MAX TEMP:  64; 6HR PCP:  0.67;

MANHATTAN      CLOUDY    58  50  75 NW10G23   29.74R
EMPORIA        CLOUDY    57  52  83 NW22G33   29.70S
CHANUTE        CLOUDY    59  57  93 VRB7G18   29.66F THUNDER
WICHITA        PTSUNNY   64  44  48 NW33G44   29.78R
OMAHA          CLOUDY    57  50  77 NW10      29.73R
LINCOLN        CLOUDY    61  45  55 N16       29.78R
FALLS CITY     RAIN      55  54  96 NW15      29.71R FOG
LAMONI         RAIN      55  53  93 S3        29.65F FOG
DES MOINES     CLOUDY    56  53  90 W8        29.66S

$$




USA.gov is the U.S. government's official web portal to all federal, state and local government web resources and services.